Weather History for LFBY - October, 2013

Change the Weather History Date:

Friday, October 18, 2013

  Actual Average (LFBZ) Record (LFBZ)
Temperature  
Mean Temperature 70 °F -  
Max Temperature 84 °F 60 °F 86 °F (2013)
Min Temperature 55 °F 48 °F 41 °F (2010)
Cooling Degree Days 4    
Growing Degree Days 20 (Base 50)    
Moisture  
Dew Point 58 °F    
Average Humidity 78    
Maximum Humidity 100    
Minimum Humidity 37    
Precipitation  
Precipitation 0.00 in - - ()
Sea Level Pressure  
Sea Level Pressure 29.85 in    
Wind  
Wind Speed 4 mph ()    
Max Wind Speed 6 mph    
Max Gust Speed -    
Visibility 6.2 miles    
Events      
Averages and records for this station are not official NWS values.
T = Trace of Precipitation, MM = Missing Value Source: Averaged Metar Reports

Daily Weather History Graph

Daily Weather History Graph

Search for Another Location

Airport or City:

Trip Planner

Search our weather history database for the weather conditions in past years. The results will help you decide how hot, cold, wet, or windy it might be!

Date:

Astronomy

Oct. 18, 2013 Rise Set
Actual Time 8:22 AM CEST 7:15 PM CEST
Civil Twilight 7:53 AM CEST 7:44 PM CEST
Nautical Twilight 7:19 AM CEST 8:18 PM CEST
Astronomical Twilight 6:46 AM CEST 8:51 PM CEST
Moon 6:56 PM CEST (10/18) 7:41 AM CEST (10/18)
Length of Visible Light 11h 51m
Length of Day
10h 53m
Full, 100% of the Moon is Illuminated
Oct 18
Full
Oct 19
Full
Oct 27
Last Quarter
Nov 3
New
Nov 10
First Quarter

Hourly Weather History & Observations

Time (CEST) Temp. Heat Index Dew Point Humidity Pressure Visibility Wind Dir Wind Speed Gust Speed Precip Events Conditions
12:00 AM 59.0 °F - 57.2 °F 94% 29.98 in 6.2 mi ENE 5.8 mph - N/A   Unknown
1:00 AM 59.0 °F - 57.2 °F 94% 29.95 in 6.2 mi Variable 3.5 mph - N/A   Unknown
2:00 AM 59.0 °F - 57.2 °F 94% 29.95 in 6.2 mi ENE 5.8 mph - N/A   Unknown
3:00 AM 57.2 °F - 55.4 °F 94% 29.92 in 6.2 mi ENE 4.6 mph - N/A   Unknown
4:00 AM 57.2 °F - 55.4 °F 94% 29.89 in 6.2 mi NE 5.8 mph - N/A   Unknown
5:00 AM 57.2 °F - 55.4 °F 94% 29.89 in 6.2 mi NNE 3.5 mph - N/A   Unknown
6:00 AM 57.2 °F - 55.4 °F 94% 29.86 in 6.2 mi Variable 3.5 mph - N/A   Unknown
7:00 AM 57.2 °F - 55.4 °F 94% 29.86 in - NE 3.5 mph - N/A   Clear
8:00 AM 57.2 °F - 55.4 °F 94% 29.86 in - ENE 5.8 mph - N/A   Clear
9:00 AM 55.4 °F - 55.4 °F 100% 29.86 in - Variable 3.5 mph - N/A   Clear
10:00 AM 59.0 °F - 55.4 °F 88% 29.86 in - Variable 3.5 mph - N/A   Clear
11:00 AM 64.4 °F - 59.0 °F 83% 29.86 in - East 4.6 mph - N/A   Clear
12:52 PM 75.2 °F - 62.6 °F 65% 29.83 in - Variable 1.2 mph - N/A   Clear
2:00 PM 78.8 °F - 62.6 °F 57% 29.83 in - Calm Calm - N/A   Clear
3:00 PM 84.2 °F 84.4 °F 60.8 °F 45% 29.80 in - Variable 2.3 mph - N/A   Clear
4:00 PM 84.2 °F 83.8 °F 59.0 °F 42% 29.80 in 6.2 mi South 5.8 mph - N/A   Unknown
5:00 PM 84.2 °F 83.0 °F 55.4 °F 37% 29.80 in 6.2 mi South 3.5 mph - N/A   Unknown
6:00 PM 82.4 °F 82.5 °F 59.0 °F 45% 29.80 in 6.2 mi East 3.5 mph - N/A   Unknown
7:00 PM 75.2 °F - 62.6 °F 65% 29.80 in 6.2 mi East 5.8 mph - N/A   Unknown
8:00 PM 71.6 °F - 62.6 °F 73% 29.80 in 6.2 mi ESE 4.6 mph - N/A   Unknown
9:00 PM 69.8 °F - 62.6 °F 78% 29.83 in 6.2 mi Variable 1.2 mph - N/A   Unknown
10:00 PM 68.0 °F - 62.6 °F 83% 29.83 in 6.2 mi Variable 2.3 mph - N/A   Unknown
11:00 PM 64.4 °F - 60.8 °F 88% 29.80 in 6.2 mi ESE 4.6 mph - N/A   Unknown